This demonstration page uses our WeatherBlox Daily Observations layout. Learn more.

Left ArrowRight Arrow

41.55636, -103.73856

Hourly Observations for September 25, 2022

Temp ( °F °C ) Dew Point ( °F °C ) Humidity (%) Winds ( mph kmh ) Pressure ( in mb ) Visibility ( mi km ) Precip ( " mm )
12:56 am 00:56 Clear 50 9.8 35 1.9 58 58 W 6 9 30.19 1023 10 16 0.00 0.00
1:56 am 01:56 Clear 49 9.4 35 1.8 59 59 WSW 6 9 30.20 1023 10 16 0.00 0.00
2:56 am 02:56 Clear 50 9.8 35 1.7 57 57 W 3 6 30.21 1023 10 16 0.00 0.00
3:56 am 03:56 Clear 45 7.4 35 1.9 68 68 WSW 7 11 30.23 1024 10 16 0.00 0.00
4:56 am 04:56 Clear 46 7.9 35 1.5 64 64 WSW 7 11 30.22 1024 10 16 0.00 0.00
5:56 am 05:56 Clear 44 6.6 35 1.7 71 71 W 5 7 30.23 1024 10 16 0.00 0.00
6:56 am 06:56 Sunny 42 5.7 36 2 77 77 WNW 5 7 30.28 1025 10 16 0.00 0.00
7:56 am 07:56 Sunny 45 7.1 37 2.8 74 74 NNW 3 6 30.28 1025 10 16 0.00 0.00
8:56 am 08:56 Sunny 52 11.1 39 4.1 62 62 WNW 5 7 30.28 1025 10 16 0.00 0.00
9:56 am 09:56 Sunny 62 16.4 36 2.4 39 39 N 5 7 30.26 1025 10 16 0.00 0.00
10:56 am 10:56 Sunny 67 19.2 32 0.2 28 28 NW 3 6 30.24 1024 10 16 0.00 0.00
11:56 am 11:56 Sunny 69 20.8 32 0 25 25 NE 9 15 30.23 1024 10 16 0.00 0.00
12:56 pm 12:56 Sunny 71 21.5 31 -0.5 23 23 NNE 7 11 30.21 1023 10 16 0.00 0.00
1:56 pm 13:56 Sunny 72 22.1 31 -0.6 22 22 W 6 9 30.19 1022 10 16 0.00 0.00
2:56 pm 14:56 Sunny 73 23 30 -1.2 20 20 NNW 9 15 30.17 1022 10 16 0.00 0.00
3:56 pm 15:56 Sunny 72 22.4 31 -0.4 22 22 NNE 9 15 30.17 1022 10 16 0.00 0.00
4:56 pm 16:56 Sunny 73 23 32 0.1 22 22 NE 9 15 30.16 1021 10 16 0.00 0.00
5:56 pm 17:56 Sunny 70 21.3 34 1 26 26 N 7 11 30.16 1021 10 16 0.00 0.00
6:56 pm 18:56 Clear 67 19.4 33 0.4 28 28 N 5 7 30.16 1022 10 16 0.00 0.00
7:56 pm 19:56 Clear 63 17.1 33 0.3 32 32 SW 6 9 30.16 1022 10 16 0.00 0.00
8:56 pm 20:56 Clear 61 16 34 0.9 36 36 Calm 30.17 1022 10 16 0.00 0.00
9:56 pm 21:56 Clear 55 13 34 1.3 45 45 S 3 6 30.17 1022 10 16 0.00 0.00
10:56 pm 22:56 Clear 56 13.6 32 -0.1 39 39 S 12 19 30.16 1021 10 16 0.00 0.00
11:56 pm 23:56 Clear 58 14.5 31 -0.4 36 36 S 12 19 30.14 1021 10 16 0.00 0.00

Powered by AerisWeather